NOAA 16 DEB, 41295

Orbit data source: Space-Track

NOAA 16 DEB, 41295 is space debris in SSO originally from a launch on Thu, 21 Sep 2000 UTC launched from the Air Force Western Test Range (AFWTR). Debris objects in space refer to the collection of defunct objects orbiting the Earth. Examples of debris include non-operational satellites, rocket bodies, and fragments generated from explosions, collisions, or faulty payload assembly.

Loading next visibility...
Identifier
41295, 2000-055GX
Orbit
SSO
Country
Flag of USUS
Related business
Manufacturer
Unknown
Mission
Spacecraft
Bus & Motor
Unknown
Mass
Unknown
Launch date (UTC)
2000-09-21 (26 years ago)
Launch vehicle
Unknown
Launch site
Air Force Western Test Range (AFWTR)
Object type
Payload
Rocket body
Debris
Shape & HBR
Unknown shape, 0.1 m
Radar Cross Section
Medium (>0.1 m² and <1 m²)

Expand to show TLE details & history
Last TLE update: 2 days ago

TLE from 2 days ago
0 NOAA 16 DEB
1 41295U 00055GX  26236.32506924  .00001954  00000-0  90459-3 0  9990
2 41295  98.6721 271.2929 0021832   2.5249 357.6035 14.21825511549621
Epoch: 2026-08-24T07:48Z
TLE epoch observation values (Epoch: 2026-08-24T07:48:05.982Z)
Latitude
-0.00002°
Longitude
-178.34042°
Altitude
806.401 km
Speed
7.458 km/s
True Right ascension
18h 05m 10s
True Declination
0° 00' 00"
Sunlit
Object was in partial shadow at epoch
Visualization orbit readout
Latitude
Unknown
Longitude
Unknown
Altitude
Unknown
Speed
Unknown
Apparent Right ascension
Unknown
Apparent Declination
Unknown
Sunlit
N/A
Visualization observer readout
Local Sidereal Time
11:06:56
Azimuth
Unknown
Elevation
Unknown
Doppler factor
Unknown
Orbital elements
Apogee altitude
832.047 km
Perigee altitude
800.633 km
Semi-major axis
7,194.477 km
Eccentricity
0.00218
Inclination
98.6721°
RAAN
271.2929°
Arg. of periapsis
2.5249°
True anomaly
357.59301°
Mean anomaly
357.6035°
Eccentric anomaly
357.59826°
Mean motion
3.55668 °/min
Orbital period
101.22 mins
BSTAR
0.00090459
Loading maneuver chart data...
Computing Atmospheric mass density...
Loading historical data...
Loading historical data...
Loading historical data...
Loading historical data...
Loading historical data...
Loading historical data...
Loading historical data...

Documentation

Showing up to 5 results
|